TimeEST,TemperatureF,Dew PointF,Humidity,Sea Level PressureIn,VisibilityMPH,Wind Direction,Wind SpeedMPH,Gust SpeedMPH,PrecipitationIn,Events,Conditions,WindDirDegrees,DateUTC
12:15 AM,38.1,22.6,54,29.70,10.0,Calm,Calm,-,N/A,,Overcast,0,2014-02-15 05:15:00
12:35 AM,37.6,25.3,61,29.70,10.0,West,3.5,-,N/A,,Light Drizzle,260,2014-02-15 05:35:00
12:55 AM,39.2,31.3,73,29.68,10.0,Calm,Calm,-,N/A,,Drizzle,0,2014-02-15 05:55:00
1:15 AM,36.7,30.6,78,29.67,10.0,Calm,Calm,-,N/A,,Overcast,0,2014-02-15 06:15:00
1:35 AM,37.0,29.1,73,29.65,10.0,East,5.8,-,N/A,Rain,Light Rain,90,2014-02-15 06:35:00
1:55 AM,36.7,29.3,75,29.64,10.0,Calm,Calm,-,N/A,,Overcast,0,2014-02-15 06:55:00
2:15 AM,35.2,29.3,79,29.64,10.0,Calm,Calm,-,N/A,Rain,Rain,0,2014-02-15 07:15:00
2:35 AM,35.6,30.4,81,29.64,10.0,Calm,Calm,-,N/A,,Light Drizzle,0,2014-02-15 07:35:00
2:55 AM,34.2,30.7,87,29.63,10.0,Calm,Calm,-,N/A,,Drizzle,0,2014-02-15 07:55:00
3:15 AM,33.8,30.9,89,29.62,7.0,East,4.6,-,N/A,Rain,Light Rain,90,2014-02-15 08:15:00
3:35 AM,34.0,31.1,89,29.61,5.0,Calm,Calm,-,0.01,Rain,Rain,0,2014-02-15 08:35:00
3:55 AM,34.3,30.9,87,29.59,10.0,Calm,Calm,-,0.01,,Light Drizzle,0,2014-02-15 08:55:00
4:15 AM,34.2,31.1,89,29.58,10.0,Calm,Calm,-,N/A,,Overcast,0,2014-02-15 09:15:00
4:35 AM,33.4,31.1,91,29.58,7.0,Calm,Calm,-,N/A,,Overcast,0,2014-02-15 09:35:00
4:55 AM,33.8,31.5,91,29.59,7.0,Calm,Calm,-,N/A,Rain,Rain,0,2014-02-15 09:55:00
5:15 AM,34.2,31.8,91,29.59,5.0,Calm,Calm,-,0.01,Rain,Rain,0,2014-02-15 10:15:00
5:35 AM,33.8,31.8,92,29.59,3.0,Calm,Calm,-,0.02,Rain,Light Rain,0,2014-02-15 10:35:00
5:55 AM,33.8,32.0,93,29.59,4.0,Calm,Calm,-,0.04,Rain,Light Rain,0,2014-02-15 10:55:00
6:15 AM,33.3,31.8,94,29.60,3.0,Calm,Calm,-,0.01,Rain,Rain,0,2014-02-15 11:15:00
6:35 AM,33.3,32.0,95,29.59,2.0,Calm,Calm,-,0.02,Rain,Light Rain,0,2014-02-15 11:35:00
6:55 AM,33.1,32.0,96,29.59,3.0,Calm,Calm,-,0.03,Rain,Light Rain,0,2014-02-15 11:55:00
7:15 AM,33.3,32.0,95,29.59,2.5,Calm,Calm,-,N/A,Rain,Rain,0,2014-02-15 12:15:00
7:35 AM,33.4,32.0,94,29.60,4.0,North,3.5,-,N/A,,Drizzle,350,2014-02-15 12:35:00
7:55 AM,33.4,32.0,94,29.61,3.0,North,3.5,-,N/A,,Drizzle,350,2014-02-15 12:55:00
8:15 AM,33.8,32.0,93,29.61,2.5,Calm,Calm,-,N/A,,Drizzle,0,2014-02-15 13:15:00
8:35 AM,33.8,32.0,93,29.61,2.5,NNW,4.6,-,N/A,,Overcast,340,2014-02-15 13:35:00
8:55 AM,33.8,32.0,93,29.62,2.5,North,4.6,-,N/A,Rain,Light Rain,350,2014-02-15 13:55:00
9:15 AM,34.3,32.2,92,29.62,2.5,NNW,6.9,-,N/A,,Drizzle,340,2014-02-15 14:15:00
9:35 AM,34.7,32.0,90,29.63,2.5,North,5.8,-,N/A,,Overcast,350,2014-02-15 14:35:00
9:55 AM,34.9,32.0,89,29.64,3.0,NNW,5.8,-,N/A,,Overcast,340,2014-02-15 14:55:00
10:15 AM,35.6,32.0,87,29.65,4.0,North,6.9,-,N/A,,Overcast,350,2014-02-15 15:15:00
10:35 AM,36.5,32.0,84,29.66,5.0,North,9.2,-,N/A,,Scattered Clouds,350,2014-02-15 15:35:00
10:55 AM,36.9,25.7,64,29.67,10.0,NNW,18.4,25.3,0.01,,Scattered Clouds,330,2014-02-15 15:55:00
11:15 AM,37.0,23.5,58,29.68,10.0,NNW,16.1,25.3,N/A,,Scattered Clouds,340,2014-02-15 16:15:00
11:35 AM,37.4,21.2,52,29.68,10.0,North,20.7,26.5,N/A,,Scattered Clouds,350,2014-02-15 16:35:00
11:55 AM,36.9,20.7,52,29.69,10.0,NNW,17.3,27.6,N/A,,Clear,340,2014-02-15 16:55:00
12:15 PM,36.7,19.6,50,29.69,10.0,NNW,21.9,25.3,N/A,,Clear,340,2014-02-15 17:15:00
12:35 PM,36.9,19.0,49,29.69,10.0,NNW,16.1,23.0,N/A,,Clear,340,2014-02-15 17:35:00
12:55 PM,36.5,18.1,47,29.69,10.0,NNW,17.3,26.5,N/A,,Clear,340,2014-02-15 17:55:00
1:15 PM,36.0,18.0,48,29.70,10.0,NNW,13.8,25.3,N/A,,Clear,340,2014-02-15 18:15:00
1:35 PM,36.1,18.0,48,29.71,10.0,North,16.1,24.2,N/A,,Clear,350,2014-02-15 18:35:00
1:55 PM,35.8,17.1,47,29.72,10.0,NNW,19.6,26.5,N/A,,Clear,340,2014-02-15 18:55:00
2:15 PM,35.2,15.3,44,29.74,10.0,NNW,15.0,20.7,N/A,,Clear,340,2014-02-15 19:15:00
2:35 PM,34.9,15.6,45,29.75,10.0,NNW,10.4,19.6,N/A,,Clear,340,2014-02-15 19:35:00
2:55 PM,34.7,15.1,45,29.77,10.0,North,12.7,19.6,N/A,,Clear,350,2014-02-15 19:55:00
3:15 PM,34.0,14.7,45,29.79,10.0,North,11.5,-,N/A,,Clear,360,2014-02-15 20:15:00
3:35 PM,33.8,12.9,42,29.80,10.0,NW,17.3,23.0,N/A,,Clear,310,2014-02-15 20:35:00
3:55 PM,32.9,12.9,44,29.81,10.0,NW,15.0,19.6,N/A,,Clear,310,2014-02-15 20:55:00
4:15 PM,32.5,11.7,42,29.83,10.0,NW,13.8,-,N/A,,Clear,310,2014-02-15 21:15:00
4:35 PM,32.2,12.0,43,29.84,10.0,NW,6.9,-,N/A,,Clear,320,2014-02-15 21:35:00
4:55 PM,32.0,11.3,42,29.85,10.0,NW,6.9,-,N/A,,Clear,310,2014-02-15 21:55:00
5:15 PM,31.1,10.2,42,29.86,10.0,NW,13.8,23.0,N/A,,Clear,320,2014-02-15 22:15:00
5:35 PM,30.4,9.9,42,29.87,10.0,NW,11.5,-,N/A,,Clear,320,2014-02-15 22:35:00
5:55 PM,28.8,11.1,48,29.88,10.0,West,4.6,-,N/A,,Clear,280,2014-02-15 22:55:00
6:15 PM,28.0,11.3,50,29.89,10.0,WSW,3.5,-,N/A,,Clear,240,2014-02-15 23:15:00
6:35 PM,27.5,10.8,49,29.91,10.0,West,3.5,-,N/A,,Clear,260,2014-02-15 23:35:00
6:55 PM,27.3,10.0,48,29.92,10.0,West,3.5,-,N/A,,Clear,270,2014-02-15 23:55:00
7:15 PM,27.1,9.7,48,29.93,10.0,WNW,13.8,19.6,N/A,,Clear,300,2014-02-16 00:15:00
7:35 PM,26.2,10.2,51,29.95,10.0,WNW,8.1,-,N/A,,Clear,290,2014-02-16 00:35:00
7:55 PM,26.2,9.5,49,29.95,10.0,WNW,9.2,-,N/A,,Clear,290,2014-02-16 00:55:00
8:15 PM,25.9,9.5,50,29.96,10.0,Calm,Calm,-,N/A,,Clear,0,2014-02-16 01:15:00
8:35 PM,25.0,9.3,52,29.96,10.0,Calm,Calm,-,N/A,,Clear,0,2014-02-16 01:35:00
8:55 PM,22.8,9.5,57,29.96,10.0,Calm,Calm,-,N/A,,Clear,0,2014-02-16 01:55:00
9:15 PM,23.0,9.3,56,29.97,10.0,Calm,Calm,-,N/A,,Clear,0,2014-02-16 02:15:00
9:35 PM,23.0,9.0,55,29.96,10.0,Calm,Calm,-,N/A,,Clear,0,2014-02-16 02:35:00
9:55 PM,21.6,8.8,58,29.96,10.0,Calm,Calm,-,N/A,,Clear,0,2014-02-16 02:55:00
10:15 PM,21.4,9.5,60,29.96,10.0,Calm,Calm,-,N/A,,Clear,0,2014-02-16 03:15:00
10:35 PM,21.0,8.6,59,29.97,10.0,Calm,Calm,-,N/A,,Clear,0,2014-02-16 03:35:00
10:55 PM,21.7,8.6,57,29.98,10.0,West,5.8,-,N/A,,Clear,260,2014-02-16 03:55:00
11:15 PM,23.9,8.2,51,29.98,10.0,West,5.8,-,N/A,,Clear,260,2014-02-16 04:15:00
11:35 PM,23.5,8.8,53,29.98,10.0,West,4.6,-,N/A,,Clear,260,2014-02-16 04:35:00
11:55 PM,23.7,9.3,54,29.98,10.0,WSW,4.6,-,N/A,,Clear,250,2014-02-16 04:55:00